Centralia, IL

7:24 AM CST on December 16, 2017 (GMT -0600)
Centralia Municipal

Weather History for KENL - July, 2012

Change the Weather History Date:

Friday, July 20, 2012

  Actual Average (KSLO) Record (KSLO)
Temperature  
Mean Temperature 80 °F -  
Max Temperature 87 °F 90 °F 101 °F (1983)
Min Temperature 73 °F 68 °F 57 °F (1971)
Cooling Degree Days 15    
Growing Degree Days 30 (Base 50)    
Moisture  
Dew Point 67 °F    
Average Humidity 63    
Maximum Humidity 86    
Minimum Humidity 46    
Precipitation  
Precipitation 0.00 in - - ()
Sea Level Pressure  
Sea Level Pressure 29.99 in    
Wind  
Wind Speed 6 mph (North)    
Max Wind Speed 14 mph    
Max Gust Speed 21 mph    
Visibility 10 miles    
Events      
Averages and records for this station are not official NWS values.
T = Trace of Precipitation, MM = Missing Value Source: NWS Daily Summary

Daily Weather History Graph

Daily Weather History Graph

Search for Another Location

Airport or City:

Trip Planner

Search our weather history database for the weather conditions in past years. The results will help you decide how hot, cold, wet, or windy it might be!

Date:

Astronomy

Jul. 20, 2012 Rise Set
Actual Time 5:48 AM CDT 8:16 PM CDT
Civil Twilight 5:18 AM CDT 8:46 PM CDT
Nautical Twilight 4:40 AM CDT 9:24 PM CDT
Astronomical Twilight 3:58 AM CDT 10:06 PM CDT
Moon 7:23 AM CDT (7/20) 8:58 PM CDT (7/20)
Length of Visible Light 15h 28m
Length of Day
14h 27m
Waxing Crescent, 3% of the Moon is Illuminated
Jul 20
Waxing Crescent
Jul 26
First Quarter
Aug 1
Full
Aug 9
Last Quarter
Aug 17
New

Hourly Weather History & Observations

Time (CDT) Temp. Heat Index Dew Point Humidity Pressure Visibility Wind Dir Wind Speed Gust Speed Precip Events Conditions
12:15 AM 82.8 °F 87.2 °F 70.7 °F 67% 29.91 in 10.0 mi NNE 3.5 mph - N/A   Unknown
12:55 AM 80.6 °F 84.1 °F 70.5 °F 71% 29.92 in 10.0 mi Calm Calm - N/A   Unknown
1:15 AM 79.7 °F - 70.5 °F 73% 29.93 in 10.0 mi Calm Calm - N/A   Unknown
1:35 AM 77.7 °F - 70.0 °F 77% 29.93 in 10.0 mi Calm Calm - N/A   Unknown
2:15 AM 77.9 °F - 70.2 °F 77% 29.93 in 10.0 mi Calm Calm - N/A   Unknown
3:15 AM 76.6 °F - 70.2 °F 80% 29.92 in 10.0 mi NNW 5.8 mph - N/A   Unknown
3:35 AM 76.3 °F - 70.7 °F 83% 29.92 in 10.0 mi NNW 5.8 mph - N/A   Unknown
4:35 AM 75.6 °F - 70.0 °F 83% 29.93 in 10.0 mi North 4.6 mph - N/A   Unknown
4:55 AM 75.2 °F - 69.8 °F 83% 29.94 in 10.0 mi North 6.9 mph - N/A   Unknown
5:15 AM 74.8 °F - 70.0 °F 85% 29.94 in 10.0 mi North 9.2 mph - N/A   Unknown
5:55 AM 74.3 °F - 69.8 °F 86% 29.95 in 7.0 mi North 9.2 mph - N/A   Unknown
7:15 AM 75.6 °F - 69.4 °F 81% 29.97 in 7.0 mi NNE 4.6 mph - N/A   Unknown
7:55 AM 76.5 °F - 69.4 °F 79% 29.98 in 7.0 mi North 8.1 mph - N/A   Unknown
8:15 AM 77.2 °F - 69.3 °F 76% 29.98 in 7.0 mi North 5.8 mph - N/A   Unknown
8:35 AM 79.3 °F - 69.1 °F 71% 29.98 in 10.0 mi North 8.1 mph - N/A   Unknown
8:55 AM 79.7 °F - 69.3 °F 70% 29.98 in 10.0 mi NNE 6.9 mph - N/A   Unknown
9:15 AM 80.1 °F 82.9 °F 69.1 °F 69% 29.99 in 10.0 mi NNW 6.9 mph - N/A   Unknown
9:35 AM 80.6 °F 83.2 °F 68.0 °F 65% 29.99 in 10.0 mi North 6.9 mph - N/A   Unknown
9:55 AM 81.9 °F 85.0 °F 68.7 °F 64% 30.00 in 10.0 mi North 9.2 mph - N/A   Unknown
10:15 AM 82.4 °F 85.4 °F 68.0 °F 62% 29.99 in 10.0 mi North 10.4 mph - N/A   Unknown
10:35 AM 82.6 °F 85.7 °F 68.2 °F 62% 30.00 in 10.0 mi North 8.1 mph - N/A   Unknown
10:55 AM 82.9 °F 85.8 °F 68.0 °F 60% 30.00 in 10.0 mi North 8.1 mph - N/A   Unknown
11:15 AM 83.3 °F 86.2 °F 67.8 °F 59% 30.00 in 10.0 mi North 8.1 mph - N/A   Unknown
11:35 AM 83.5 °F 86.4 °F 67.6 °F 59% 30.00 in 10.0 mi NNW 10.4 mph - N/A   Unknown
12:15 PM 86.7 °F 89.6 °F 67.1 °F 52% 30.01 in 10.0 mi NNW 11.5 mph 18.4 mph N/A   Unknown
12:35 PM 86.7 °F 89.3 °F 66.6 °F 51% 30.01 in 10.0 mi NW 12.7 mph 16.1 mph N/A   Unknown
1:15 PM 84.2 °F 86.3 °F 66.0 °F 54% 30.01 in 10.0 mi North 13.8 mph 18.4 mph N/A   Unknown
1:35 PM 86.0 °F 87.9 °F 65.1 °F 50% 30.01 in 10.0 mi NNW 13.8 mph - N/A   Unknown
1:55 PM 86.5 °F 88.1 °F 64.6 °F 48% 30.00 in 10.0 mi North 10.4 mph - N/A   Unknown
2:15 PM 87.3 °F 88.9 °F 64.8 °F 47% 30.00 in 10.0 mi North 10.4 mph 17.3 mph N/A   Unknown
2:35 PM 87.8 °F 89.4 °F 64.4 °F 46% 30.00 in 10.0 mi North 9.2 mph - N/A   Unknown
2:55 PM 85.8 °F 87.6 °F 65.5 °F 50% 30.01 in 10.0 mi NNW 11.5 mph 17.3 mph N/A   Unknown
3:15 PM 86.9 °F 88.9 °F 65.8 °F 49% 30.00 in 10.0 mi NW 12.7 mph - N/A   Unknown
3:35 PM 86.9 °F 88.6 °F 65.1 °F 48% 30.00 in 10.0 mi North 9.2 mph 20.7 mph N/A   Unknown
3:55 PM 86.4 °F 88.1 °F 65.1 °F 49% 30.00 in 10.0 mi North 5.8 mph - N/A   Unknown
4:15 PM 86.5 °F 88.4 °F 65.5 °F 49% 30.00 in 10.0 mi North 8.1 mph - N/A   Unknown
4:35 PM 86.0 °F 87.6 °F 64.8 °F 49% 29.99 in 10.0 mi North 11.5 mph - N/A   Unknown
4:55 PM 86.4 °F 88.7 °F 66.0 °F 51% 29.99 in 10.0 mi North 11.5 mph 17.3 mph N/A   Unknown
5:15 PM 87.6 °F 90.1 °F 66.6 °F 49% 29.99 in 10.0 mi North 11.5 mph - N/A   Unknown
5:35 PM 86.0 °F 87.6 °F 64.9 °F 49% 29.99 in 10.0 mi NNW 11.5 mph - N/A   Unknown
6:15 PM 86.4 °F 88.7 °F 66.0 °F 51% 29.99 in 10.0 mi North 8.1 mph - N/A   Unknown
6:35 PM 86.5 °F 88.4 °F 65.1 °F 49% 29.99 in 10.0 mi North 10.4 mph - N/A   Unknown
6:55 PM 85.5 °F 87.4 °F 65.3 °F 51% 29.99 in 10.0 mi North 12.7 mph - N/A   Unknown
7:15 PM 84.2 °F 86.1 °F 65.3 °F 53% 30.00 in 10.0 mi North 10.4 mph - N/A   Unknown
7:35 PM 83.3 °F 85.3 °F 65.7 °F 55% 30.00 in 10.0 mi NNE 8.1 mph - N/A   Unknown
7:55 PM 82.2 °F 84.0 °F 65.3 °F 56% 30.01 in 10.0 mi NNE 9.2 mph 16.1 mph N/A   Unknown
8:15 PM 81.0 °F 82.9 °F 65.3 °F 59% 30.01 in 10.0 mi NNE 9.2 mph - N/A   Unknown
8:35 PM 80.1 °F 82.0 °F 65.5 °F 61% 30.02 in 10.0 mi North 6.9 mph - N/A   Unknown
9:15 PM 78.8 °F - 65.3 °F 63% 30.03 in 10.0 mi NNE 3.5 mph - N/A   Unknown
9:35 PM 77.7 °F - 65.3 °F 65% 30.04 in 10.0 mi NE 3.5 mph - N/A   Unknown
10:15 PM 76.3 °F - 65.3 °F 69% 30.05 in 10.0 mi Calm Calm - N/A   Unknown
10:35 PM 75.6 °F - 65.3 °F 70% 30.05 in 10.0 mi Calm Calm - N/A   Unknown
10:55 PM 74.5 °F - 65.3 °F 73% 30.05 in 10.0 mi Calm Calm - N/A   Unknown
11:15 PM 73.0 °F - 65.3 °F 77% 30.05 in 10.0 mi ENE 3.5 mph - N/A   Unknown
11:35 PM 73.6 °F - 65.5 °F 76% 30.05 in 10.0 mi ENE 3.5 mph - N/A   Unknown